Theta_e
310 309 310 310 311 310 310 308 308 307 307 305 303 304 294 294 291 301 305 307 306 298 294 300 302 296 297 303 301 301 299 298 299 297 298 296 298 297 298 299 299 300 300 300 300 301 299 300 297 299 300 301 304 306 306 307 306 305 302 303 302 319 297 295 296 297 300 303 303 303 303 303 300 301 301 300 297 298 296 293 293 295 293 293 292 291 289
310 309 309 310 310 310 309 308 308 308 308 305 305 300 296 296 296 300 308 310 307 298 291 292 294 298 301 302 301 304 302 301 299 298 298 296 297 296 297 300 302 300 304 302 300 305 295 300 301 299 304 301 305 306 306 307 304 304 300 301 307 298 296 295 290 290 294 298 299 299 301 302 297 295 299 301 300 301 297 297 295 296 293 294 291 288 290
310 310 310 310 310 310 309 308 308 308 309 308 304 297 299 297 299 297 301 311 305 295 296 295 294 298 298 298 296 298 301 303 303 302 301 303 301 300 298 301 302 302 306 303 303 304 300 297 302 302 305 306 306 305 306 307 305 308 309 320 308 300 296 296 291 288 287 287 288 289 292 295 297 298 299 301 301 299 298 296 296 291 294 295 291 289 292
310 310 310 310 310 310 308 308 308 309 308 308 305 301 298 296 290 297 299 300 300 301 302 296 294 294 295 295 296 298 297 301 304 304 303 305 303 302 302 302 303 303 304 301 300 301 307 302 301 302 304 307 310 310 307 305 305 316 325 321 307 299 299 298 296 294 292 293 292 296 300 296 297 297 300 299 302 302 301 296 292 293 289 294 289 295 297
310 310 310 310 311 309 308 308 309 309 308 309 304 301 298 298 293 296 290 298 296 295 297 295 296 292 297 289 297 296 297 299 300 305 299 303 302 302 301 300 298 299 300 302 301 304 304 306 305 305 308 308 309 312 310 304 310 324 322 319 304 298 296 297 298 298 299 298 298 299 301 298 298 298 298 299 300 300 299 298 297 296 294 289 292 294 302
310 310 310 310 310 309 308 308 309 308 308 308 306 298 300 293 299 298 299 291 286 291 292 296 295 297 298 295 299 295 295 297 297 302 304 303 303 298 301 300 301 302 302 304 301 304 305 304 303 309 309 307 308 308 309 307 320 328 312 317 303 298 295 298 298 298 300 301 301 301 301 300 299 299 299 299 299 298 299 299 298 299 299 295 295 296 302
310 310 310 310 309 309 308 308 308 308 308 307 300 296 300 302 300 299 303 294 294 295 296 297 298 297 299 298 300 296 297 297 299 298 297 299 300 301 296 299 303 302 303 304 302 304 301 300 308 308 305 307 305 302 305 308 308 308 307 310 302 301 294 297 299 298 299 299 300 302 301 301 301 299 299 300 300 299 301 300 300 301 299 301 301 299 303
310 310 310 310 310 309 309 308 308 308 307 306 300 298 294 293 294 294 300 298 296 296 296 297 297 294 300 298 299 299 298 296 298 298 297 294 297 302 302 303 305 305 305 306 304 306 307 307 303 309 308 304 305 304 304 304 309 309 306 309 307 303 297 305 298 296 296 298 300 300 300 300 299 300 300 300 299 299 300 301 301 303 301 301 300 301 303
310 310 310 310 310 309 309 308 308 307 307 301 298 297 299 298 300 300 295 293 293 297 296 295 294 293 296 296 298 297 298 297 299 297 300 297 296 301 302 304 304 305 307 307 307 309 309 308 306 308 307 302 307 306 305 308 305 307 306 307 308 303 294 304 297 293 294 298 298 299 299 299 299 299 300 299 297 296 297 298 299 300 300 299 300 299 301
310 310 310 310 309 309 309 308 308 307 307 301 299 295 301 300 303 303 298 291 299 292 294 293 294 291 297 297 295 294 296 298 299 294 301 305 303 304 304 305 303 309 308 308 309 309 310 310 310 309 309 312 311 310 311 309 306 304 304 307 304 300 299 298 294 293 292 297 299 298 298 299 296 297 300 300 298 299 301 305 306 304 302 298 297 299 306
310 310 310 310 309 310 309 309 309 308 305 300 298 296 299 297 296 298 299 291 291 290 290 290 292 296 296 295 293 296 296 298 298 293 295 300 302 305 305 304 303 303 304 306 308 309 310 312 312 311 309 309 310 310 310 310 309 307 306 306 305 303 300 296 295 291 291 296 297 297 295 290 290 299 300 303 303 304 302 302 303 307 305 300 302 305 305
309 309 310 309 310 310 309 309 309 307 306 303 303 299 301 302 300 299 296 290 290 292 290 288 290 293 293 294 294 294 295 296 296 298 295 298 301 304 305 304 303 296 307 309 308 308 309 312 312 312 311 309 310 310 309 307 307 311 309 307 303 302 301 296 295 294 291 295 297 294 289 290 302 308 309 307 307 308 306 305 306 308 309 309 306 307 307
309 308 309 309 309 309 309 309 310 309 308 304 304 298 302 304 300 298 296 293 290 292 290 290 295 295 295 295 294 295 297 299 298 299 299 299 301 304 306 304 302 304 308 306 306 307 309 309 307 308 308 307 307 309 308 307 306 308 307 306 304 301 298 299 297 294 292 292 292 289 290 300 309 309 310 312 310 308 307 305 306 308 309 308 307 306 307
309 309 309 309 309 309 309 309 309 309 308 306 302 302 303 303 298 297 297 294 292 294 294 293 293 293 294 295 295 296 297 296 296 297 297 301 301 303 306 308 306 307 307 307 304 307 302 303 301 301 300 300 300 303 308 308 308 307 306 306 308 305 302 298 295 297 292 289 289 292 302 304 306 306 310 306 306 306 305 299 302 308 309 308 306 307 309
309 309 309 309 309 309 309 309 309 309 309 307 303 304 303 303 302 299 300 298 291 295 295 288 292 294 295 295 296 294 293 293 293 294 297 300 303 305 305 308 307 306 308 306 301 303 301 303 298 296 296 296 291 294 306 304 307 309 307 306 308 305 301 300 294 293 294 290 289 294 293 292 298 306 312 315 310 308 310 307 302 308 310 311 309 308 309
309 309 309 309 308 309 309 309 309 309 308 306 303 304 303 304 304 303 300 296 295 288 292 296 298 296 294 294 296 293 292 292 292 293 294 300 300 301 305 305 305 307 313 306 303 301 301 299 296 295 294 296 302 299 297 304 303 308 309 307 307 306 305 303 298 295 294 292 289 287 289 295 302 306 310 312 312 308 310 305 299 306 310 311 310 309 311
309 309 309 309 309 309 308 309 308 308 308 306 303 303 301 304 303 301 299 298 297 292 299 300 299 298 295 293 295 294 294 293 295 292 291 293 296 299 303 302 306 310 310 304 304 298 296 298 301 297 300 303 299 297 301 301 300 301 307 307 305 304 302 301 297 297 297 293 290 291 295 298 306 309 311 313 314 312 307 296 295 306 312 312 311 310 309
309 308 308 309 309 310 310 308 308 308 307 308 303 301 302 305 304 303 300 297 294 295 298 301 298 294 293 294 293 296 297 295 296 297 295 296 297 299 297 299 302 308 312 305 304 296 295 296 295 296 295 305 307 304 294 301 299 299 302 301 299 299 300 300 295 297 298 299 295 297 301 308 311 310 311 312 311 307 299 292 299 311 311 312 311 310 310
307 308 308 308 308 309 310 309 308 308 308 306 304 302 302 303 304 304 300 298 297 291 299 303 302 298 300 302 299 299 298 296 295 291 292 291 295 299 298 300 304 301 307 302 301 298 296 294 300 299 296 300 308 298 304 299 299 306 304 298 299 298 299 298 299 297 297 295 294 296 299 307 310 312 311 313 305 295 295 305 311 313 312 312 311 311 311
308 308 308 309 308 307 308 308 308 308 308 308 304 300 303 305 305 305 301 296 298 295 298 299 300 297 301 298 295 294 295 296 295 292 292 290 296 297 296 297 303 305 304 304 297 301 297 295 298 300 296 296 301 308 302 303 307 302 302 306 301 303 297 294 295 300 299 296 293 291 293 304 310 310 310 311 300 300 305 311 312 316 313 314 314 312 311
307 307 308 307 308 308 308 307 307 308 308 308 306 302 300 303 304 306 306 302 297 293 295 302 302 301 301 300 301 300 298 294 294 291 293 294 298 295 286 293 296 300 300 301 297 298 299 295 296 298 301 301 305 304 298 300 305 309 308 307 308 311 299 295 299 303 294 293 290 291 300 306 312 309 306 309 309 311 313 312 310 312 313 314 315 315 315
307 307 307 307 308 308 307 307 307 307 307 307 306 301 298 302 304 305 306 305 299 296 298 302 303 302 304 304 304 303 301 300 301 300 295 292 296 295 295 299 301 302 307 305 299 299 300 299 301 298 295 298 303 300 303 295 297 304 313 308 299 305 305 303 298 304 300 298 301 306 309 310 311 312 310 310 311 313 313 312 311 310 310 313 313 314 316
307 307 307 307 307 307 307 307 308 307 307 308 305 302 298 301 302 306 305 299 302 302 304 302 303 304 306 307 308 308 306 306 304 302 300 295 292 295 295 300 300 307 307 306 300 300 301 300 296 301 299 300 300 299 300 300 298 304 303 309 308 312 313 311 309 306 311 310 310 313 309 309 310 313 313 312 312 312 312 311 310 310 311 311 310 311 312
306 306 307 307 307 307 307 307 307 307 307 307 306 302 301 303 303 302 301 301 298 294 297 298 295 293 296 299 302 306 309 308 309 305 305 302 292 291 297 304 306 305 303 304 305 299 301 301 300 303 298 303 304 298 293 295 300 305 304 306 309 313 315 310 305 307 298 296 306 308 309 310 310 311 312 313 313 312 312 312 312 312 313 312 311 311 311
307 307 307 306 307 308 307 307 307 307 307 307 306 306 304 301 301 302 298 292 295 294 289 292 294 299 301 304 306 305 306 309 312 310 305 304 300 295 293 303 306 301 299 302 305 303 304 302 304 302 297 305 302 291 303 298 297 306 300 303 306 307 314 308 308 305 299 303 307 310 310 310 311 309 309 309 310 313 315 315 316 316 318 317 316 316 314
306 306 307 307 307 307 307 307 307 307 307 307 306 301 300 300 302 302 302 300 300 298 290 290 294 302 304 303 301 303 306 306 306 307 308 305 304 302 300 301 301 305 305 307 304 300 300 302 304 305 299 299 307 300 300 303 302 307 302 304 308 309 318 304 309 306 307 310 310 312 309 310 311 311 310 310 311 310 311 311 313 313 313 314 314 315 315
306 306 307 307 307 307 307 307 307 306 306 306 305 303 302 302 303 300 297 299 295 291 293 289 294 299 302 299 303 304 306 306 306 304 304 306 304 302 301 301 299 299 301 299 303 303 303 302 301 301 302 304 307 303 306 308 307 304 303 309 308 308 304 309 308 303 302 303 306 312 305 304 310 313 312 311 310 310 310 311 312 311 313 313 312 312 313
306 305 306 306 306 306 306 306 306 306 306 306 306 303 302 300 301 302 303 301 297 290 292 292 292 296 302 298 304 304 306 308 307 304 300 299 302 301 299 298 298 298 297 298 294 296 297 297 297 303 306 309 305 304 306 307 310 306 303 305 305 303 306 306 304 302 301 308 311 310 309 308 310 313 314 312 312 312 311 313 312 312 312 311 311 310 310
306 306 306 306 306 306 307 306 306 306 306 306 301 300 300 301 302 303 304 306 304 299 297 297 299 295 290 295 303 301 304 305 305 302 299 298 300 299 299 298 297 296 298 297 297 298 297 298 302 299 299 304 306 304 302 298 299 296 304 310 307 308 312 311 312 311 313 313 311 311 307 305 306 308 309 310 311 311 310 310 310 309 309 309 308 307 307
306 306 306 306 306 306 306 306 306 306 306 300 297 297 296 300 303 303 306 306 305 302 294 291 288 291 299 300 298 301 303 305 302 299 298 296 297 297 298 297 298 304 301 298 297 295 296 298 300 301 304 310 305 305 301 302 300 301 309 310 309 308 308 306 308 313 309 311 308 308 307 307 308 308 309 310 312 312 311 312 310 309 310 310 309 309 308
306 306 306 306 306 306 306 306 306 306 304 298 297 292 292 290 299 307 306 305 302 299 296 295 290 296 295 301 300 300 302 306 301 298 298 298 297 298 300 301 302 306 297 298 297 295 298 296 297 299 301 304 305 299 300 300 299 301 308 308 306 305 306 308 306 306 307 307 308 309 309 309 310 309 308 308 308 309 309 309 315 320 314 311 310 310 310
305 306 305 305 305 306 307 306 306 306 301 298 294 293 297 299 301 304 305 305 303 299 295 291 291 291 292 297 302 307 306 306 305 303 302 305 299 300 301 300 299 303 302 297 298 295 295 298 298 300 297 304 305 295 295 294 294 295 302 302 309 309 307 307 309 310 308 308 310 308 308 308 308 306 305 308 308 308 308 307 308 309 315 311 309 309 309
306 306 305 306 306 306 306 306 306 305 300 302 305 305 305 306 306 306 306 304 300 296 299 293 289 292 290 293 300 303 306 303 301 299 298 304 300 301 298 304 302 300 316 301 293 292 296 299 300 295 298 304 298 297 293 293 294 300 302 306 305 306 306 308 307 307 307 309 309 304 303 304 305 307 307 308 309 309 308 307 307 307 308 308 307 307 307
306 306 306 306 306 306 306 306 306 306 304 300 295 296 301 305 305 305 305 303 299 299 298 291 289 288 290 299 296 300 303 295 297 298 293 302 305 299 298 299 302 297 298 296 296 296 295 303 298 295 297 296 300 297 293 298 301 303 304 306 306 306 306 306 307 305 306 307 308 307 307 307 308 308 308 307 307 308 309 308 308 306 306 306 306 306 306
306 306 306 306 306 307 307 306 302 301 296 296 297 300 303 307 307 309 305 300 292 292 292 293 292 287 288 291 293 296 303 296 295 296 294 297 308 298 300 296 296 295 296 301 296 295 294 298 298 297 294 299 297 293 297 300 301 302 302 303 304 305 305 304 303 306 305 306 306 306 307 307 306 305 305 306 306 307 307 307 307 306 305 304 305 306 305
306 306 306 307 306 306 304 304 302 299 296 295 297 306 311 313 310 305 304 304 298 293 292 293 294 289 290 286 288 296 303 294 297 300 297 301 300 305 302 297 292 294 304 296 293 295 295 302 301 295 297 295 294 296 298 301 300 301 301 301 302 303 302 302 303 304 305 306 306 306 306 305 305 304 305 305 306 306 306 306 306 307 306 306 306 306 306
306 306 307 306 302 300 297 297 302 300 299 302 305 310 311 310 308 306 303 301 304 302 293 291 288 289 292 291 294 298 299 292 297 296 296 297 296 300 297 298 292 300 296 296 297 299 302 308 300 296 296 294 296 302 303 303 302 302 302 303 304 303 303 303 307 304 303 304 304 304 304 303 303 304 304 304 305 305 305 305 304 305 305 306 307 307 307
306 306 299 298 297 294 295 298 300 304 310 310 311 305 299 301 293 296 298 294 299 301 294 293 289 288 294 293 290 299 298 294 298 294 295 300 296 295 298 297 297 299 291 294 298 304 301 300 298 297 298 301 304 305 305 305 306 306 305 305 305 305 305 305 305 304 302 301 301 302 303 303 302 302 303 303 304 304 304 304 305 306 307 309 309 308 307
304 299 299 299 296 294 295 300 306 310 306 307 305 298 293 298 294 291 292 293 296 291 295 292 289 287 292 292 294 300 297 295 295 297 295 301 296 291 297 291 297 296 288 292 298 304 295 294 296 296 295 300 301 303 307 307 307 307 307 307 306 306 306 306 306 304 303 301 301 302 302 301 301 302 303 304 304 305 305 305 306 308 309 309 310 310 308
296 294 295 295 294 296 304 305 308 305 303 294 294 291 289 294 289 284 295 289 288 294 295 290 297 294 294 293 293 292 302 300 294 295 296 299 302 294 298 297 298 295 288 290 296 305 296 292 294 294 294 299 301 304 306 307 307 307 307 308 308 307 306 306 307 307 306 305 305 305 305 306 306 304 304 305 305 304 306 306 306 308 309 309 315 310 307
295 295 296 294 297 298 300 302 302 300 296 290 287 290 289 284 289 291 292 288 287 290 298 296 298 295 297 298 296 292 299 308 303 303 300 296 303 300 295 294 299 291 290 291 300 302 298 296 297 295 296 300 301 304 306 307 307 308 308 308 309 307 307 307 307 307 307 306 306 306 306 307 305 305 306 307 306 305 306 307 308 309 310 309 309 309 310
300 299 298 300 301 301 300 298 298 292 291 293 286 280 283 286 290 290 290 285 286 292 293 296 294 293 293 296 295 296 297 304 303 303 297 294 300 296 295 296 295 290 286 296 301 296 296 294 294 295 300 302 305 307 306 305 307 307 307 307 308 308 307 306 307 308 308 307 306 306 306 306 306 307 307 307 307 307 307 307 308 308 308 308 312 311 311
304 304 302 298 298 295 298 287 290 290 281 281 279 279 284 281 283 284 287 292 296 293 294 300 300 299 300 304 299 300 299 302 298 297 296 293 298 298 294 289 291 286 292 301 298 294 294 293 293 297 301 303 306 306 306 306 306 306 307 307 306 306 307 306 306 307 308 308 307 306 307 307 307 307 309 308 309 308 308 309 310 309 309 310 311 311 311
305 302 296 296 289 290 292 280 291 289 284 282 280 278 280 280 282 286 287 287 292 291 293 292 294 294 294 300 298 296 298 299 301 298 295 299 295 293 292 286 290 295 299 297 298 293 294 297 298 300 302 305 307 306 306 306 305 305 306 307 307 307 307 308 307 307 307 308 308 308 308 307 307 308 309 309 310 308 308 308 312 312 313 311 311 311 311
293 288 286 285 284 287 285 279 285 282 280 282 285 281 284 282 283 285 287 294 297 294 298 298 298 299 298 300 300 299 299 295 300 296 292 294 289 291 291 289 295 294 293 290 291 295 296 294 299 301 302 303 305 306 307 305 305 304 304 306 307 307 307 307 307 307 307 307 308 309 308 308 308 307 308 308 310 310 309 309 311 313 312 310 310 311 311
290 287 286 282 281 284 284 281 282 279 284 288 287 287 286 287 290 291 295 299 297 297 297 298 300 301 296 300 295 293 296 297 292 294 295 293 289 288 295 298 296 291 291 292 291 290 292 295 297 299 302 303 304 305 305 305 306 307 307 305 306 307 307 307 307 306 307 307 308 307 308 308 308 307 307 307 308 309 309 310 311 311 310 309 310 311 311
288 292 287 284 281 284 289 284 284 287 289 289 289 290 289 293 296 296 298 300 298 300 299 300 300 299 297 295 295 293 295 297 292 294 293 288 289 291 296 292 287 289 289 289 290 292 295 296 298 300 301 303 304 305 305 306 307 307 307 306 307 307 307 307 308 308 308 308 307 307 307 307 308 307 308 307 308 308 310 312 311 311 311 310 310 310 311
284 289 287 282 282 285 285 288 293 292 293 294 293 295 296 300 297 296 299 301 300 299 298 298 297 295 294 297 296 292 292 293 291 289 295 292 292 288 285 291 291 293 294 292 291 295 295 297 298 300 302 304 304 305 305 305 306 307 307 307 307 307 307 307 307 308 309 308 307 307 307 307 308 307 307 308 308 309 309 310 311 310 310 310 310 309 311
291 287 284 283 288 288 289 293 291 289 292 293 295 297 298 298 297 298 298 298 297 297 299 296 298 296 291 294 291 290 287 291 288 286 290 286 284 282 285 287 290 289 295 295 293 294 295 298 300 302 302 305 305 306 305 304 305 306 307 306 307 307 306 307 307 308 309 308 308 308 309 309 309 307 307 307 307 309 310 309 309 309 310 310 311 311 311
286 285 289 285 285 286 291 292 292 289 291 292 292 292 294 293 293 296 298 298 297 296 296 297 297 291 290 291 284 285 286 287 288 284 284 285 287 289 291 289 291 291 292 294 295 297 298 299 300 300 302 302 305 305 305 306 309 309 307 307 307 307 307 307 307 308 308 307 308 309 309 308 307 306 307 307 309 309 309 309 309 308 309 309 310 310 311
289 285 285 292 288 287 290 287 287 287 288 289 290 292 293 293 293 295 299 298 297 294 293 291 288 286 284 283 281 281 284 290 288 287 286 288 290 288 288 289 293 295 296 299 299 299 298 299 300 301 302 302 303 304 304 306 307 307 307 307 307 307 307 307 307 307 307 308 308 315 309 307 308 308 309 308 308 308 307 309 310 308 308 310 310 309 310
284 284 285 291 294 293 292 292 291 290 290 291 292 294 295 294 296 298 301 297 296 294 291 293 288 284 281 283 286 288 290 289 286 288 288 292 295 292 292 292 294 296 297 298 298 299 302 300 301 304 302 303 308 305 305 306 306 306 306 308 308 308 308 308 308 306 307 307 307 307 308 308 308 307 310 309 307 307 307 307 310 311 310 309 309 309 309
Wind_Speed
18 18 18 19 18 18 17 18 20 20 23 12 12 7 4 2 6 7 7 10 2 3 2 3 2 3 4 3 4 3 4 3 3 4 4 5 4 3 5 6 6 8 7 6 7 6 5 5 5 3 6 11 15 12 15 18 14 13 8 13 7 5 4 6 8 6 7 8 5 5 4 3 3 6 6 8 8 8 8 7 7 7 1 1 1 2 4
18 19 19 18 18 17 17 18 18 19 19 10 10 5 4 4 6 8 3 2 3 2 4 3 4 3 4 5 7 4 4 3 4 4 4 3 2 3 3 5 10 7 3 6 9 2 4 3 3 9 8 7 11 17 17 19 12 11 6 11 7 5 2 8 7 4 5 8 8 5 2 3 4 4 6 7 6 8 3 6 2 4 6 9 7 7 3
19 18 19 16 16 16 17 17 17 18 18 14 8 5 5 6 5 6 8 3 2 2 2 2 3 2 2 2 3 4 2 3 7 7 7 5 8 6 6 8 6 3 1 10 9 5 2 7 8 6 6 6 5 9 17 19 14 15 13 16 12 9 6 7 8 11 10 9 12 10 8 6 3 2 5 7 11 8 5 5 2 5 1 4 4 3 8
18 18 18 16 15 16 16 16 17 18 18 17 6 3 3 3 5 5 3 4 4 1 1 5 3 2 4 3 4 3 3 2 4 7 8 9 9 10 9 9 7 7 2 7 7 6 2 2 4 9 7 4 4 3 9 12 12 18 20 12 12 4 4 8 10 12 11 10 7 6 3 3 5 5 9 9 10 14 9 6 7 9 4 6 7 8 4
18 18 18 16 15 16 15 15 16 19 19 18 6 3 3 3 2 3 5 6 2 1 2 4 5 3 4 1 2 2 2 4 5 5 3 3 3 5 7 5 6 5 8 6 5 5 8 6 8 7 7 3 5 12 7 6 15 14 3 7 4 4 5 8 13 15 15 12 11 7 6 6 7 8 7 9 10 10 10 10 9 7 11 7 6 5 8
17 18 18 16 14 15 15 14 15 18 20 20 2 2 3 1 3 2 1 1 4 7 4 8 8 4 3 4 2 3 5 3 3 4 3 7 9 3 2 6 13 12 10 6 4 1 1 5 9 5 3 4 7 11 9 4 8 3 5 10 4 4 7 7 9 15 16 15 15 11 3 4 4 7 10 12 11 10 14 11 8 12 11 12 7 8 9
17 17 17 18 15 14 14 13 13 17 21 17 2 3 3 2 4 2 7 2 3 2 10 11 8 9 4 3 3 3 2 4 2 2 6 6 4 3 4 7 11 12 13 8 3 3 1 5 3 2 4 3 4 5 5 2 6 3 2 8 6 3 5 5 9 13 13 12 15 15 14 11 7 6 8 12 15 15 16 12 9 16 8 11 11 13 14
16 16 17 17 14 13 13 12 12 15 19 11 3 4 3 4 4 4 5 4 7 7 3 4 6 6 5 1 3 3 3 5 8 6 2 6 9 6 6 8 10 10 4 7 7 7 6 4 6 3 2 8 0 3 4 5 7 6 4 0 3 10 7 10 6 6 9 11 13 14 13 13 14 12 9 11 10 13 15 11 8 9 2 1 5 11 12
16 16 16 15 14 12 12 11 10 12 14 5 5 3 3 4 3 5 6 6 5 4 2 3 4 4 4 0 4 7 3 5 9 13 8 12 8 5 11 11 9 6 7 9 11 11 10 6 9 12 9 7 3 0 5 2 7 9 4 2 1 5 4 1 6 7 7 9 12 14 10 9 11 13 13 11 8 6 4 5 5 7 7 4 6 5 8
16 15 15 15 14 11 12 10 8 9 9 4 4 3 5 5 4 5 4 3 4 5 3 4 2 3 1 4 6 4 9 11 11 7 5 3 8 8 8 12 2 0 2 1 2 1 2 7 9 11 11 10 10 6 9 5 5 4 4 1 2 4 2 2 5 8 8 9 9 12 6 3 6 11 12 11 5 5 4 2 2 2 6 10 8 10 11
16 15 15 15 14 13 13 10 8 6 4 4 5 5 6 6 5 5 3 3 4 3 4 4 0 3 6 8 11 9 9 10 8 3 4 6 11 10 10 8 3 3 3 3 6 8 11 8 9 7 8 10 11 8 8 9 6 6 3 2 1 1 5 6 5 6 7 6 6 6 6 9 7 4 4 8 10 10 7 2 0 1 4 6 7 9 6
16 16 15 14 14 14 12 11 7 5 2 0 1 4 4 6 5 4 3 3 5 3 3 5 4 5 8 12 8 10 12 11 11 7 9 8 14 15 12 7 3 4 4 6 9 10 11 6 4 4 6 6 7 8 8 8 8 5 3 2 4 6 3 4 3 5 7 3 6 7 10 7 3 4 3 3 5 12 14 6 2 2 2 1 1 3 8
15 15 15 14 14 12 13 12 7 5 1 1 0 5 5 6 5 4 5 5 6 4 5 5 3 9 11 11 11 10 11 12 11 12 11 11 8 8 3 4 4 5 10 15 15 7 2 1 2 2 8 7 4 4 6 8 8 7 2 3 4 2 3 2 0 2 4 4 5 8 4 3 2 2 3 5 8 4 12 10 8 8 3 1 1 3 5
15 15 14 14 14 14 12 12 10 8 5 1 1 3 5 5 4 3 3 4 7 5 4 9 10 7 5 8 8 11 11 10 9 7 5 4 6 10 9 5 6 11 12 9 5 1 1 3 1 2 4 5 3 1 5 6 3 5 7 6 1 2 2 2 2 0 7 5 6 4 1 2 2 2 2 4 2 4 10 5 4 3 8 4 3 3 3
15 14 14 14 13 13 13 12 11 11 8 3 1 2 4 5 5 4 4 3 7 7 4 6 1 3 8 9 7 9 7 7 10 4 7 7 3 4 9 11 12 12 11 3 2 2 2 2 1 3 1 0 4 3 2 1 4 1 6 5 3 2 4 4 5 1 4 7 5 1 2 5 4 4 4 0 3 6 6 10 2 6 10 6 2 10 7
15 14 14 14 14 12 12 12 11 10 8 4 1 3 4 5 6 5 5 4 4 7 5 6 3 7 8 9 8 7 5 7 6 8 5 3 6 14 7 8 14 11 7 1 1 1 1 2 2 2 3 2 2 0 1 2 2 7 2 8 7 6 2 3 4 2 3 3 6 3 3 2 3 5 5 8 7 2 2 11 1 2 6 7 2 7 10
15 15 15 14 13 13 13 12 11 9 9 5 2 2 3 2 3 4 3 3 4 9 7 9 9 8 6 6 3 2 2 4 5 6 6 7 10 12 14 13 12 4 9 2 4 2 1 2 2 2 1 2 1 3 1 1 1 6 14 7 9 9 6 5 5 4 2 4 4 2 2 1 3 5 6 7 10 8 6 8 3 4 9 5 6 7 3
15 15 15 14 14 13 12 13 12 10 8 6 3 2 4 3 5 4 4 5 5 7 8 9 4 2 2 2 6 6 3 2 2 3 3 8 6 6 10 10 9 7 5 3 3 3 2 1 1 3 1 2 1 2 3 3 1 1 1 2 4 5 6 6 3 3 7 7 1 1 1 2 3 5 8 8 3 4 11 8 3 2 5 4 8 6 4
16 14 13 14 14 13 11 11 10 10 9 7 2 3 4 3 3 4 6 5 5 7 2 6 5 8 9 7 9 7 5 5 4 4 6 6 2 5 13 7 4 6 8 6 4 2 1 2 2 0 1 1 0 3 2 2 3 2 1 2 5 4 2 4 2 5 3 2 5 0 3 2 3 8 9 5 2 5 8 2 1 3 4 5 8 10 6
14 14 14 13 12 12 12 12 10 10 9 7 1 4 5 5 6 6 5 5 4 10 10 8 6 13 6 6 7 5 4 5 3 3 1 4 5 13 7 2 4 2 5 5 3 3 2 2 1 2 3 1 0 1 1 1 1 2 2 1 4 2 2 2 3 1 1 5 6 2 1 3 6 14 5 5 6 4 4 4 6 4 4 8 9 7 5
14 14 13 12 12 11 11 12 11 9 9 8 3 3 5 3 5 4 4 6 6 8 9 4 7 10 8 10 10 9 7 10 5 3 4 4 6 4 2 0 5 2 2 2 1 2 1 2 3 1 2 1 5 1 2 1 0 1 4 2 2 2 3 1 0 1 2 4 2 2 1 7 12 2 4 3 3 6 7 7 8 4 4 6 9 8 6
12 13 13 12 13 12 11 11 10 10 8 8 5 1 5 4 3 4 5 5 7 9 7 8 8 11 15 16 15 13 15 17 17 10 7 7 3 5 4 4 4 1 1 1 2 2 3 1 1 2 3 3 3 1 1 1 2 1 0 5 4 4 6 5 2 2 2 1 2 2 3 5 6 7 10 7 8 7 7 9 9 9 6 3 10 8 7
12 13 11 12 11 11 12 10 9 9 9 8 3 2 5 5 5 4 5 6 4 5 5 8 8 10 12 15 15 16 16 15 15 10 9 7 6 3 5 2 4 1 2 1 2 3 1 0 2 2 1 0 2 5 3 1 1 1 2 2 5 2 5 8 9 3 0 5 2 2 3 4 6 8 9 12 9 5 5 9 10 5 6 8 10 7 9
11 11 10 12 11 10 9 10 10 7 10 10 5 3 4 4 5 4 3 4 4 6 7 5 2 7 5 6 5 4 8 11 11 14 10 9 6 5 2 3 2 2 1 1 2 2 1 1 2 1 1 2 3 4 3 3 3 2 1 2 2 2 1 2 9 4 6 2 5 6 3 5 7 6 7 6 6 5 5 8 6 4 3 5 6 9 8
11 9 11 13 12 10 9 10 10 9 8 9 7 3 3 3 2 1 3 4 3 2 5 6 7 12 12 10 10 11 7 4 2 6 8 11 11 7 5 1 0 2 4 2 1 2 1 1 3 2 3 2 6 2 4 1 6 4 3 1 2 2 3 8 4 6 6 7 3 2 4 3 3 3 6 7 5 5 5 4 4 5 1 1 2 2 7
9 10 12 11 10 10 9 9 8 8 8 9 7 3 3 4 2 1 3 5 5 5 6 7 8 4 6 11 10 7 9 11 8 5 10 13 14 13 9 3 3 2 1 1 1 1 2 2 1 1 0 3 1 2 4 2 5 8 3 1 1 2 1 7 6 6 3 6 3 1 4 10 8 6 5 3 5 8 7 5 6 4 6 7 8 7 6
10 8 9 9 10 9 9 8 8 8 8 8 5 3 4 5 5 5 4 3 4 4 4 7 7 11 6 14 15 11 8 5 5 3 5 9 10 5 3 2 4 4 2 2 1 1 1 1 2 3 3 3 2 1 2 2 1 5 5 5 7 3 1 2 8 11 10 9 9 7 11 2 3 4 2 3 4 9 9 10 10 7 6 4 6 5 5
10 9 10 9 9 8 8 9 8 5 7 7 6 5 5 6 6 8 7 6 6 4 5 6 7 12 12 14 7 5 8 8 6 5 5 7 7 6 5 5 4 3 2 1 2 1 1 1 4 2 2 2 1 2 1 2 1 3 5 9 7 3 3 2 8 12 8 2 6 4 11 9 3 1 1 2 4 11 13 9 5 3 4 5 6 8 10
9 8 9 10 9 8 7 8 7 7 7 4 4 6 7 9 8 7 7 6 5 5 6 7 8 5 4 7 10 11 8 4 5 5 5 6 5 4 6 6 6 3 1 1 0 0 1 3 1 2 2 4 4 1 3 3 3 3 5 14 13 3 1 3 5 10 8 6 8 6 8 11 6 4 5 6 5 12 11 8 8 8 8 8 9 7 8
8 8 9 8 6 7 7 7 7 6 4 2 2 2 4 1 1 5 6 4 2 3 3 4 5 5 3 5 7 5 6 7 4 4 5 4 4 4 5 4 4 2 1 1 2 1 3 2 2 2 2 2 2 2 4 2 3 2 4 9 9 6 12 7 6 3 8 4 9 10 13 11 8 7 7 7 4 8 10 9 9 10 9 9 10 7 5
9 8 8 7 7 8 7 7 7 5 2 1 1 2 2 3 1 4 6 3 1 0 2 2 7 6 8 3 4 10 10 6 4 5 6 5 5 5 3 3 1 3 1 0 0 3 0 1 1 2 1 2 2 3 4 6 2 1 4 9 8 10 12 10 8 5 8 10 11 11 10 6 1 9 12 9 6 7 9 8 9 10 10 10 9 7 7
7 7 6 7 8 7 7 8 7 4 1 2 3 3 2 1 0 5 6 4 4 1 1 4 5 2 3 5 3 3 4 5 2 2 1 2 4 3 1 4 3 4 3 3 2 1 2 3 2 2 0 1 4 3 4 3 4 3 0 4 4 8 10 11 12 9 7 3 14 19 17 14 13 10 4 5 7 8 9 8 7 7 9 7 6 7 8
6 7 7 7 7 8 8 8 7 4 3 6 11 14 17 21 20 16 8 2 1 2 1 2 4 3 3 5 6 4 4 1 1 2 3 1 2 1 1 1 2 1 3 1 1 2 3 2 1 1 3 0 2 3 4 5 3 2 1 4 7 10 12 11 11 11 13 12 10 13 8 7 5 5 5 10 11 10 9 7 5 7 10 12 12 11 10
6 5 6 7 7 8 8 9 7 7 5 3 5 6 4 10 11 15 5 2 2 2 1 1 2 2 6 5 4 4 1 3 2 4 2 2 2 2 2 1 0 2 2 4 2 1 3 0 1 2 3 6 4 6 5 5 5 3 3 6 6 10 12 15 12 12 11 10 10 9 7 5 6 10 13 13 12 10 10 10 11 11 9 9 9 7 6
4 6 7 8 9 9 10 9 3 1 2 3 4 6 5 9 9 6 9 4 1 1 1 2 1 2 5 4 2 5 2 2 1 3 3 2 1 4 1 2 1 0 2 1 1 2 1 1 1 5 4 4 6 5 3 6 6 4 4 8 4 2 6 12 8 6 5 7 9 9 8 11 15 11 9 9 10 9 11 10 9 9 9 7 6 6 6
5 7 8 9 10 8 4 3 3 3 2 3 5 7 9 4 3 4 5 1 1 1 1 2 1 3 2 2 3 4 3 3 1 0 3 1 1 0 2 3 1 4 1 2 1 3 3 4 4 5 4 6 6 3 4 5 4 6 9 9 8 7 5 7 6 6 8 10 11 11 12 11 11 7 6 7 7 8 9 10 11 9 8 8 7 6 6
6 7 8 8 3 0 2 2 2 3 4 4 6 7 9 5 2 2 1 1 1 1 2 1 2 4 2 4 2 5 2 2 1 0 0 0 2 1 1 1 1 0 2 2 4 6 5 3 9 9 9 7 4 5 6 6 6 7 8 7 6 7 7 6 1 5 12 13 13 10 9 10 9 7 8 8 7 7 10 9 6 5 5 5 5 6 5
6 7 2 1 1 1 2 1 3 3 7 12 11 3 1 1 1 0 1 0 2 3 1 1 4 3 2 2 5 5 1 4 1 0 1 0 1 1 0 1 2 1 3 3 3 3 2 5 6 8 6 4 4 8 7 7 6 6 7 7 7 6 7 6 6 10 10 9 10 9 8 9 7 5 7 7 6 7 6 4 4 3 3 3 3 3 4
3 2 1 2 1 2 2 2 3 12 9 3 0 0 1 0 1 1 2 2 0 1 2 4 4 2 3 3 7 4 2 2 4 2 2 1 1 0 1 1 1 1 1 3 4 3 4 2 2 4 6 5 7 8 6 5 6 7 8 8 8 7 7 8 9 12 11 7 4 4 4 6 6 6 5 6 5 5 5 5 5 5 4 4 5 5 6
1 1 2 2 2 4 4 4 7 5 1 0 0 1 0 0 2 2 1 1 1 2 2 4 3 5 8 8 2 6 2 1 2 3 0 2 0 0 1 0 1 2 3 3 2 4 5 4 2 2 4 5 4 4 5 6 7 7 7 7 7 8 8 9 9 7 7 5 4 5 4 4 4 4 5 4 4 5 6 5 4 3 4 4 4 4 5
1 2 2 2 3 3 4 5 4 0 0 1 1 0 0 1 2 2 1 2 1 2 3 3 0 3 4 5 4 6 6 0 0 1 1 0 1 1 1 1 0 4 3 4 1 2 3 4 3 4 3 4 4 6 6 7 8 8 9 9 9 9 9 9 8 7 7 7 7 6 6 5 5 4 4 2 1 2 1 2 3 4 4 4 5 5 5
1 1 2 3 5 4 4 1 0 1 1 0 1 1 2 2 1 0 1 1 3 1 2 2 1 3 4 6 5 4 4 1 0 1 1 1 2 1 0 1 1 2 3 4 1 2 2 5 3 3 2 4 5 5 6 7 7 8 8 8 7 7 6 6 5 6 5 4 4 4 4 4 5 5 4 4 3 2 3 3 3 4 3 3 4 5 6
9 7 2 2 2 2 1 1 1 1 0 1 1 1 0 0 2 2 1 1 1 0 1 3 5 3 4 1 2 1 2 1 1 2 2 1 2 1 2 2 2 3 3 2 3 1 4 4 4 3 1 2 3 3 3 3 3 3 3 3 2 2 1 3 3 3 4 4 4 4 4 4 4 3 3 4 4 4 3 2 2 3 4 4 4 4 4
3 1 1 1 1 3 1 1 1 0 1 0 1 1 2 2 5 3 2 3 3 3 1 2 2 5 1 3 0 2 2 2 2 1 2 1 2 2 2 3 1 1 3 3 2 6 5 4 3 2 1 1 2 2 2 2 2 2 2 2 2 3 5 6 6 6 7 5 5 5 4 4 3 4 4 4 4 3 3 3 3 3 4 4 5 5 5
2 2 1 1 1 2 1 2 1 2 1 2 0 0 1 1 4 3 3 3 0 4 7 4 2 2 1 2 1 0 1 1 2 3 0 1 4 3 2 1 0 3 2 3 2 1 3 3 2 1 1 1 2 2 2 2 2 1 2 2 6 6 6 6 6 5 5 6 5 5 4 4 4 4 4 4 4 3 2 3 4 4 4 4 4 5 5
3 0 1 2 3 2 2 0 1 3 1 0 1 2 3 1 0 5 5 4 5 6 6 5 4 2 2 1 2 1 2 1 2 1 0 2 3 1 1 0 3 3 2 2 3 3 3 2 0 1 2 1 2 2 3 3 3 3 5 7 6 5 5 5 5 4 4 4 4 4 4 4 4 3 3 3 3 3 3 3 3 3 3 3 4 5 6
1 1 1 0 1 1 0 2 2 1 2 4 5 5 3 1 1 5 4 4 6 7 7 7 2 1 2 2 2 3 2 1 2 1 1 2 2 1 3 4 2 2 2 4 3 1 0 0 1 2 2 3 3 3 4 5 5 6 6 5 5 6 5 5 4 4 4 4 4 4 3 3 4 3 2 3 4 3 3 4 4 3 2 2 3 3 4
1 1 0 2 2 1 4 3 2 4 5 4 5 4 3 1 2 5 1 4 8 8 8 1 2 4 3 2 2 0 1 2 2 2 1 0 1 3 2 1 3 2 2 3 1 0 0 0 1 2 3 3 3 4 5 6 6 6 5 5 5 5 5 5 5 4 4 3 4 3 4 3 3 3 3 3 3 4 3 3 4 4 3 3 3 4 4
0 1 1 1 0 1 1 5 3 3 6 4 1 2 3 4 4 7 8 3 2 2 1 2 1 1 1 2 2 2 3 3 3 1 2 4 3 1 1 2 2 4 2 1 1 0 1 2 2 3 3 3 4 4 4 3 3 4 4 4 4 4 4 3 3 3 3 2 3 3 4 3 3 3 3 3 4 5 4 4 4 3 2 2 3 3 4
1 1 0 1 3 1 4 5 3 7 7 7 5 4 2 1 4 6 4 6 5 3 3 3 3 3 0 1 2 2 1 2 2 1 5 4 2 2 2 5 2 3 1 1 1 1 1 2 2 3 3 3 3 3 4 4 4 4 4 4 4 4 3 3 4 3 3 2 2 3 3 3 3 3 3 3 4 4 4 4 3 3 4 3 2 2 3
0 2 2 2 2 1 3 5 6 5 7 6 6 4 3 5 4 6 6 4 5 5 6 3 1 2 2 3 2 2 1 1 4 3 2 1 1 2 2 4 1 1 1 0 1 1 1 2 1 3 3 4 3 3 3 4 4 4 4 4 4 4 4 3 3 3 3 2 1 2 2 3 3 2 3 2 1 2 3 3 3 3 3 4 3 3 4
2 3 3 2 1 2 2 2 2 3 5 5 4 3 1 6 6 6 5 3 5 8 3 2 2 2 3 3 1 1 1 3 2 2 4 2 2 2 2 2 1 1 1 0 1 2 2 3 1 2 3 3 4 4 4 4 4 4 4 5 5 6 6 5 4 3 3 3 2 1 3 3 3 3 2 2 3 4 5 6 6 5 5 4 4 4 3
Wind_Direction
325 329 329 331 335 333 335 340 340 343 344 350 349 330 331 325 243 273 293 296 337 149 242 265 277 234 234 267 271 254 283 258 279 298 282 288 216 251 233 237 248 235 244 257 253 242 259 257 255 250 252 252 229 228 206 205 206 174 195 194 201 139 150 168 244 271 277 271 263 270 231 189 268 248 194 159 186 175 170 167 184 175 203 125 45 206 252
321 326 328 329 330 331 335 338 340 343 353 344 330 333 308 285 282 306 265 266 246 182 222 258 246 257 275 261 264 243 255 259 277 234 231 191 265 221 245 240 213 255 256 284 272 27 318 217 278 303 286 266 250 230 219 203 201 182 186 186 181 190 253 148 208 252 266 282 312 299 346 142 181 198 208 195 184 175 142 107 101 172 213 175 153 224 275
321 323 326 328 326 331 335 336 337 342 343 347 336 316 312 285 252 232 291 302 190 174 251 276 297 279 322 329 320 322 273 228 245 245 256 239 240 263 256 250 264 238 157 275 291 293 238 293 299 251 271 279 279 272 231 212 201 203 185 184 159 185 182 152 190 207 210 221 217 218 252 220 224 223 198 193 178 161 131 186 145 185 256 133 157 237 250
319 321 325 327 329 331 332 335 337 339 340 343 331 313 304 328 333 296 301 356 337 20 16 73 8 337 346 333 273 232 258 270 279 292 279 254 250 233 257 263 248 246 253 279 288 298 254 253 308 306 297 304 303 317 300 228 226 210 195 168 150 176 191 174 192 197 213 218 209 242 133 107 183 219 191 205 198 180 174 118 136 196 197 180 225 180 214
316 318 320 324 330 329 328 334 338 339 336 341 328 274 207 320 225 318 329 323 13 1 21 32 37 336 314 301 267 277 280 281 286 213 279 251 270 275 218 229 230 222 197 216 241 222 304 316 301 271 274 282 261 302 306 256 216 233 269 163 134 82 178 210 191 207 215 201 213 209 171 194 204 191 215 200 196 188 167 167 203 160 115 222 259 205 157
316 316 319 322 329 323 326 333 341 341 335 339 318 261 203 316 269 36 18 287 284 351 327 6 326 266 271 245 268 264 284 312 310 303 251 317 302 256 297 232 233 218 191 149 190 215 4 314 293 286 266 321 320 330 343 16 28 285 223 163 184 147 198 219 180 216 219 212 224 221 179 192 213 213 194 197 197 184 187 198 182 143 192 202 231 179 187
312 314 315 321 324 320 325 333 343 345 337 337 141 351 267 274 326 316 3 316 295 266 285 305 293 305 298 248 253 252 307 314 301 322 309 317 289 284 286 280 268 222 200 175 171 126 187 279 301 271 292 320 313 328 339 318 25 29 288 194 159 180 245 196 192 214 223 223 222 235 232 244 236 227 238 209 187 191 192 200 169 177 189 196 184 176 201
309 311 315 319 318 318 329 332 346 347 341 334 21 28 348 6 340 329 354 293 289 285 280 282 318 311 298 291 270 353 328 305 329 332 339 311 291 294 275 285 294 305 219 175 151 172 154 198 254 276 309 314 302 265 203 266 311 4 329 321 277 187 230 171 183 206 234 225 220 228 229 230 243 242 221 229 219 199 200 189 177 190 193 104 151 177 219
306 306 311 314 315 321 326 331 347 352 350 5 19 336 54 313 283 297 315 309 268 260 300 330 316 309 296 149 340 341 327 337 337 298 273 248 251 294 296 287 291 272 223 199 158 167 161 192 232 249 256 252 230 149 289 13 325 328 324 325 340 192 274 155 136 186 245 225 211 224 223 222 234 247 246 227 185 200 209 195 191 160 195 142 113 177 247
302 304 305 309 312 322 318 327 347 360 0 4 340 331 349 323 290 297 283 272 290 327 301 295 311 271 263 10 348 348 304 305 306 320 291 330 303 297 304 297 225 17 236 204 63 344 190 199 233 244 245 244 259 243 256 275 272 291 280 250 249 181 158 168 159 184 228 230 196 203 184 195 258 248 241 232 194 170 154 103 128 224 143 127 167 215 217
301 303 305 307 309 312 315 322 343 354 33 14 353 328 338 349 330 331 287 281 302 321 350 288 62 272 357 345 326 315 300 305 310 329 298 320 299 307 318 321 2 245 245 287 314 303 286 263 260 265 254 245 247 248 253 258 229 223 254 300 295 131 174 224 173 183 226 223 163 123 130 203 229 234 190 166 166 155 131 121 239 205 149 197 201 221 181
300 298 299 300 303 307 309 314 318 325 73 192 281 308 322 319 308 274 287 289 275 320 354 278 278 289 327 309 302 303 306 306 304 292 268 275 283 299 309 301 33 290 249 319 314 308 280 262 281 292 251 248 250 259 259 256 272 264 204 234 265 262 196 220 200 160 220 181 118 143 201 222 239 319 262 102 84 110 111 117 89 58 70 27 308 264 162
297 298 296 296 296 298 304 304 312 306 300 154 334 315 320 310 292 290 289 277 274 302 314 287 291 289 282 284 299 294 290 286 288 292 271 264 284 292 295 304 319 266 315 311 317 329 345 120 298 267 289 327 318 312 286 280 271 282 270 200 213 234 179 183 26 125 56 100 157 199 230 240 301 54 44 106 122 138 94 47 10 11 11 147 165 286 298
294 296 295 295 295 295 296 301 307 304 276 185 222 297 305 308 296 281 266 275 274 265 266 294 288 275 290 298 299 300 301 297 302 270 281 292 295 285 286 278 283 293 291 290 285 296 354 33 41 32 304 356 348 20 304 296 286 313 332 333 43 204 120 113 112 71 162 175 169 194 180 59 19 54 22 359 130 131 109 108 344 356 356 352 126 64 81
290 291 293 292 293 292 292 294 295 298 296 245 197 242 272 281 270 246 271 270 277 284 244 254 260 310 331 316 320 320 313 316 334 320 287 266 251 280 290 295 305 299 297 237 307 46 150 102 38 146 272 224 232 253 282 354 300 279 328 306 345 122 206 209 120 245 125 124 92 80 46 142 252 240 264 331 288 262 146 101 347 335 355 351 259 125 112
285 285 290 292 292 292 292 291 291 291 289 273 204 240 264 250 249 255 255 262 300 298 256 219 355 354 326 305 306 302 300 321 323 305 321 314 288 313 298 315 308 304 322 61 94 102 120 165 201 116 163 196 237 77 318 290 326 305 316 356 11 355 55 127 116 148 49 67 125 168 131 241 213 275 303 320 332 323 241 78 59 300 350 338 25 98 122
285 286 285 288 289 290 292 287 283 285 284 260 229 238 273 235 256 268 288 275 230 246 286 314 314 296 300 296 312 307 341 312 348 349 335 337 320 309 305 329 299 331 350 73 358 54 35 74 147 160 263 172 90 201 183 43 331 332 330 354 359 359 341 1 42 35 85 137 83 96 208 138 338 299 321 313 312 260 84 98 228 298 340 334 50 50 27
280 281 282 281 283 284 285 290 289 285 282 271 246 244 272 265 240 240 262 254 267 272 254 257 282 307 223 275 298 288 278 311 11 294 263 287 292 316 325 330 329 332 20 75 360 64 35 153 169 185 213 254 142 141 187 174 120 161 326 307 331 357 334 35 130 111 51 75 77 27 351 297 291 304 311 314 318 68 110 164 223 328 352 51 82 60 65
284 284 284 282 282 284 285 282 281 283 281 277 273 272 249 228 236 237 254 252 239 256 214 334 339 271 255 271 265 275 282 311 306 309 302 325 262 307 300 256 270 332 12 346 17 50 19 304 324 34 188 284 108 198 185 116 199 187 150 28 359 359 335 302 38 38 76 113 85 189 237 228 288 316 317 291 47 74 139 204 177 76 42 30 76 89 76
282 280 278 278 281 280 284 289 287 283 282 285 245 264 279 273 255 228 253 274 266 270 283 272 261 268 265 259 274 281 313 291 227 230 334 275 295 338 337 20 335 30 347 357 42 322 58 301 298 327 13 295 304 255 52 271 167 147 136 208 120 238 65 314 337 312 59 48 70 12 58 269 1 323 336 25 99 211 193 121 25 22 58 80 60 67 62
279 281 282 277 274 277 282 280 282 284 284 278 279 292 285 224 246 249 265 281 283 292 286 250 228 242 254 252 251 263 269 263 256 278 247 250 294 335 352 65 296 342 56 341 344 297 330 305 315 311 265 274 291 2 181 231 48 227 146 168 107 218 72 323 326 90 108 63 103 182 236 283 322 346 97 325 71 136 105 103 86 26 40 62 80 50 50
281 278 279 281 281 284 284 287 283 276 274 275 272 228 279 268 272 283 288 278 264 248 268 296 289 278 268 261 256 248 246 248 250 234 257 278 266 240 252 293 286 282 229 180 10 356 354 308 308 20 331 309 305 354 251 74 156 212 288 104 93 242 146 181 133 333 106 142 204 310 309 279 317 76 93 84 65 78 113 105 111 108 68 77 73 68 53
286 284 283 288 289 286 287 283 287 290 281 274 268 216 261 295 290 298 302 280 250 259 266 275 274 269 264 264 248 241 242 241 249 235 210 225 281 257 238 266 287 268 314 74 165 182 205 126 251 204 233 308 315 327 341 132 224 328 94 323 151 232 153 141 86 49 74 62 67 341 346 358 40 52 84 99 91 67 86 101 103 88 114 96 94 87 76
266 274 277 271 264 268 274 281 274 275 282 278 254 231 273 255 281 311 292 249 263 301 285 243 235 259 233 273 300 253 241 245 221 228 204 182 210 282 311 223 238 345 3 261 199 138 223 201 229 309 24 258 40 15 9 341 344 332 60 109 54 182 219 82 111 153 70 59 323 15 6 5 12 59 44 56 86 106 112 93 83 88 49 79 100 103 100
277 278 280 283 282 272 271 269 276 277 277 282 287 259 262 284 250 221 335 307 292 317 285 312 258 253 275 288 290 281 253 216 264 217 185 198 210 226 236 221 228 256 275 261 316 54 65 79 350 44 357 287 101 276 253 125 285 22 6 293 88 159 196 85 119 109 120 162 200 6 4 9 8 27 88 84 80 83 73 87 118 109 32 154 130 67 61
273 269 273 272 273 281 285 287 284 283 283 285 281 265 267 254 219 220 261 267 270 264 281 288 285 304 316 319 297 267 291 296 276 242 202 205 212 218 237 294 309 31 263 257 119 138 144 92 78 41 357 291 137 164 261 184 274 311 256 261 210 258 279 147 192 102 64 73 67 161 48 30 22 28 29 43 86 87 72 66 72 79 76 50 44 62 89
277 273 271 279 279 280 281 284 286 292 299 295 290 259 246 253 218 189 194 233 293 278 233 263 288 301 337 310 289 294 275 250 264 241 228 217 219 217 211 239 260 318 11 329 317 143 108 103 141 202 175 228 307 227 181 20 6 307 325 298 356 13 39 125 108 115 152 159 181 161 102 74 341 16 2 56 49 76 69 52 32 20 56 71 78 51 49
261 270 279 274 275 281 285 286 292 298 285 292 291 270 242 243 225 202 211 206 218 254 296 293 301 294 308 278 265 267 277 275 251 239 224 223 222 220 213 234 234 268 306 13 345 357 66 131 226 222 171 261 4 318 336 180 148 64 339 316 320 285 237 149 151 148 178 198 140 144 124 122 141 176 275 24 61 74 70 74 93 64 40 44 59 53 36
268 268 265 275 277 281 287 293 302 305 305 315 293 287 268 242 236 204 200 204 212 257 266 279 279 282 263 278 314 298 274 242 252 219 212 216 214 201 208 214 208 196 146 90 161 148 188 233 210 182 199 209 117 259 5 18 42 73 322 305 306 269 107 95 101 87 68 109 142 157 115 112 114 95 73 55 57 90 91 85 81 77 70 63 60 53 62
275 264 270 280 293 296 290 289 290 295 323 27 3 299 297 352 125 164 175 138 217 250 283 307 299 265 297 301 279 284 301 304 259 212 206 211 221 228 224 210 226 185 145 177 164 280 231 222 265 255 264 204 142 190 90 72 41 87 263 277 290 37 50 30 323 81 112 117 104 98 102 103 103 92 78 67 52 79 84 77 75 74 68 71 73 67 65
272 278 287 289 288 288 291 294 295 306 64 67 45 285 248 151 130 107 100 70 37 153 253 232 257 301 302 242 255 274 269 268 249 220 219 212 216 214 220 162 227 140 138 319 93 230 102 272 219 274 324 245 140 124 137 115 144 292 293 317 331 54 70 48 4 59 107 99 95 86 70 61 118 79 50 38 40 65 76 67 60 69 70 65 61 61 55
280 285 295 296 290 288 288 288 291 293 201 188 174 208 244 17 192 286 305 343 336 297 246 292 295 272 274 287 246 248 244 235 209 184 268 175 244 214 217 161 204 191 155 160 208 360 247 228 204 265 222 199 107 93 73 91 105 114 54 119 44 58 60 70 64 23 28 46 78 55 44 38 30 56 58 360 35 43 63 69 61 58 61 67 66 55 51
293 298 297 289 285 285 287 289 289 281 212 243 251 260 267 270 271 270 279 263 185 215 237 260 261 295 274 263 296 276 221 125 139 151 270 210 231 135 223 208 144 120 228 149 277 211 226 194 258 355 259 300 78 71 65 38 42 1 10 72 64 60 68 65 64 56 53 37 64 102 104 87 68 51 56 50 44 41 38 46 49 56 50 43 34 29 28
305 308 300 292 287 283 281 281 286 296 314 313 303 265 249 230 241 249 220 179 217 230 200 208 285 286 272 308 336 285 201 148 220 153 240 272 178 115 205 93 122 157 208 173 250 52 313 319 212 253 357 16 27 67 38 5 342 352 18 40 44 73 72 64 45 48 50 59 60 75 97 117 86 55 45 42 38 33 43 38 33 41 39 40 32 20 12
303 295 292 287 282 282 285 286 297 241 251 259 260 271 270 265 259 193 159 158 108 286 208 248 196 307 311 332 356 276 303 34 266 201 185 264 170 163 195 93 354 116 282 85 29 148 237 255 168 54 342 328 42 55 40 353 346 1 30 48 358 72 73 73 56 61 63 72 72 69 62 59 56 48 45 40 39 34 39 37 36 40 36 24 21 9 10
298 292 288 289 290 293 303 270 201 207 222 243 233 253 248 269 128 146 181 200 137 211 291 270 248 237 247 293 307 286 347 335 251 196 211 162 30 184 118 120 84 253 188 109 222 360 356 318 66 15 323 65 48 29 351 335 350 23 45 46 21 44 67 105 122 82 67 62 62 57 54 53 60 54 48 44 39 35 40 35 24 29 36 26 12 6 16
286 290 300 300 315 139 251 240 181 191 214 204 241 243 270 284 91 94 123 288 283 201 235 273 293 252 236 263 287 274 15 326 317 56 346 139 215 250 93 69 201 348 62 16 46 61 22 11 86 76 45 60 33 358 11 8 16 28 35 30 29 34 40 22 17 94 67 54 48 42 46 50 44 35 38 34 25 27 34 31 19 31 28 14 4 9 358
297 308 340 338 291 292 256 218 199 234 266 275 278 293 19 90 71 256 161 214 237 165 236 106 256 266 293 281 271 262 338 265 33 91 349 264 78 272 139 125 212 123 108 108 113 173 92 28 47 75 74 44 53 32 21 21 21 29 35 35 32 38 43 39 46 59 56 43 32 25 30 40 42 28 37 24 22 26 19 8 15 26 25 17 9 351 353
317 298 267 227 272 271 239 245 329 331 311 259 78 166 291 199 134 232 217 210 150 233 219 175 243 208 247 258 270 273 199 305 334 8 76 277 101 317 11 109 289 81 347 73 48 31 70 23 47 38 57 5 18 4 354 11 24 27 31 25 25 17 25 36 45 66 74 90 90 56 74 59 40 14 15 27 16 24 24 20 23 17 13 358 359 356 357
31 4 315 303 240 244 286 318 349 318 294 42 350 109 212 186 122 247 208 141 254 235 150 232 204 201 201 216 233 310 292 56 24 356 337 312 6 144 259 101 260 87 77 64 350 8 98 89 21 61 50 8 6 345 3 10 25 22 25 23 24 24 27 37 36 41 64 64 60 44 39 44 51 43 29 18 35 28 12 9 359 357 4 348 343 360 345
349 306 325 293 280 297 296 310 324 199 65 47 23 317 76 269 230 206 192 231 220 228 184 196 118 273 230 204 201 238 286 59 230 141 118 51 251 80 53 79 238 82 52 84 54 39 58 82 64 56 30 325 347 351 3 18 19 16 15 14 19 19 24 26 28 27 36 35 28 25 21 24 31 27 17 28 52 50 355 333 336 342 340 344 334 319 306
250 228 253 275 269 271 297 294 161 28 349 170 120 264 218 222 259 314 163 158 247 188 200 133 299 248 256 188 198 195 272 209 159 78 76 15 333 84 203 291 15 92 97 226 187 62 53 79 70 64 3 339 355 2 7 14 6 9 358 359 0 6 10 20 23 16 27 40 30 22 14 17 16 11 4 359 340 333 339 353 343 335 321 299 298 310 316
265 254 230 288 318 295 230 11 301 105 102 341 33 1 321 283 228 185 264 239 283 167 249 146 221 230 288 21 309 162 217 296 55 329 68 320 305 47 56 23 53 63 78 57 42 27 66 81 85 77 343 340 7 4 352 357 342 338 328 325 325 321 11 39 36 27 18 31 21 14 1 5 356 344 340 358 0 347 340 329 327 317 322 327 323 325 341
267 284 331 286 10 291 82 344 269 5 334 80 73 11 335 8 327 354 5 314 340 322 283 187 253 109 170 280 225 299 3 354 57 70 33 322 63 351 31 42 46 323 65 60 37 66 83 63 81 107 324 354 27 352 339 340 324 305 320 334 350 19 23 22 22 21 10 5 13 1 6 2 349 344 354 354 2 351 318 328 334 334 331 345 343 342 330
47 357 18 11 6 270 52 331 320 96 41 313 29 102 24 333 280 328 346 278 116 294 294 262 263 92 76 290 36 326 87 250 287 96 237 24 37 343 61 288 317 43 60 83 51 5 73 79 8 349 335 332 321 334 338 340 327 328 304 360 20 18 16 16 9 10 8 7 358 3 3 352 358 349 345 346 346 346 357 336 316 332 337 345 341 339 333
66 311 355 57 14 334 72 294 332 2 319 98 316 285 282 255 190 289 285 327 326 321 338 340 332 82 63 326 113 257 327 52 45 68 124 100 108 72 286 359 71 81 48 57 75 74 78 88 328 300 290 297 311 323 343 342 352 3 27 21 356 3 360 9 4 3 359 357 354 4 357 353 355 351 337 326 339 351 340 323 324 322 332 354 346 332 313
352 333 77 224 92 285 85 32 327 262 308 307 288 298 228 168 212 242 270 335 318 305 306 283 297 88 103 354 10 353 9 43 81 306 74 58 97 241 46 63 32 46 75 82 72 97 125 277 300 293 307 323 348 359 4 359 1 8 10 6 1 355 354 1 360 4 345 356 355 355 352 355 353 347 343 349 341 328 322 327 323 327 344 332 304 307 313
45 263 73 65 57 316 12 342 339 291 248 239 297 355 355 248 308 320 236 195 242 247 255 315 16 353 14 320 87 133 312 8 56 327 55 160 23 53 54 41 50 50 31 90 125 175 200 269 277 287 310 319 357 8 1 358 353 354 354 351 349 353 351 350 350 351 357 359 348 340 339 345 355 344 340 321 305 311 314 317 316 318 320 332 330 328 324
188 88 85 204 212 49 279 261 268 8 1 6 323 97 21 351 288 271 293 285 246 253 310 79 151 87 354 315 56 20 15 331 62 304 6 27 69 62 82 78 72 81 15 89 189 224 234 270 289 320 318 347 360 0 339 328 316 327 334 331 326 321 328 330 331 323 334 341 341 341 332 322 324 326 331 338 341 321 316 311 309 311 303 303 307 309 311
69 353 351 36 14 326 280 283 325 11 351 359 23 8 321 286 327 313 315 333 325 358 359 18 30 96 258 40 14 5 24 340 70 11 52 37 49 36 63 82 39 105 161 332 143 251 264 284 318 337 334 344 334 338 331 326 335 336 324 313 313 321 326 321 327 333 328 302 315 312 307 308 297 289 295 304 290 280 294 307 314 319 314 302 296 302 310
312 134 231 252 90 272 354 11 355 330 334 343 340 321 334 342 337 320 332 332 335 31 47 37 326 49 12 20 36 40 316 320 53 25 86 60 332 65 38 91 75 66 120 260 208 225 246 276 295 314 333 322 313 314 317 314 319 317 317 319 320 316 317 322 325 330 330 312 286 316 317 288 272 263 264 247 263 331 350 350 355 336 320 319 323 328 323
20 19 335 303 251 213 213 250 248 223 247 262 285 278 5 1 336 305 315 4 29 49 360 312 49 28 50 57 342 236 320 44 46 27 40 18 30 67 50 114 106 30 171 146 290 279 276 273 264 296 295 298 317 319 317 314 314 315 329 332 332 335 335 332 330 324 315 318 317 298 289 286 298 300 300 16 24 22 12 339 326 336 332 325 318 312 296